User: anonymous   Login
Location: Tyler Bend Campground
(35.9875°N, 92.7606°W)
Time: 07:11:26
(UTC-05:00)
Language:

CZ-2C R/B - Orbit

View from above orbital plane
View from above orbital plane
View from above satellite
View from above satellite

Ground track
Ground track

The orbit data is extracted from the following two-line orbital elements,

1 36089U 09061B   17085.95781868 +.00000108 +00000-0 +38450-4 0  9998
2 36089 098.0521 091.4073 0080884 299.4250 115.2154 14.49648602389706
Epoch (UTC): 26 March 2017 22:59:15
Eccentricity: 0.0080884
inclination: 98.0521°
perigee height: 669 km
apogee height: 784 km
right ascension of ascending node: 91.4073°
argument of perigee: 299.4250°
revolutions per day: 14.49648602
mean anomaly at epoch: 115.2154°
orbit number at epoch: 38970

The dashed part of the orbit path shows where the satellite is in the earth's shadow,  

DLR